Year,Month,Day,Hour,Minute,Value (Times are PST for temperature in C)
2016,04,25,00,00,7.70
2016,04,25,00,01,7.70
2016,04,25,00,02,7.70
2016,04,25,00,03,7.60
2016,04,25,00,04,7.60
2016,04,25,00,05,7.60
2016,04,25,00,06,7.60
2016,04,25,00,07,7.60
2016,04,25,00,08,7.60
2016,04,25,00,09,7.60
2016,04,25,00,10,7.50
2016,04,25,00,11,7.50
2016,04,25,00,12,7.50
2016,04,25,00,13,7.50
2016,04,25,00,14,7.50
2016,04,25,00,15,7.50
2016,04,25,00,16,7.60
2016,04,25,00,17,7.60
2016,04,25,00,18,7.60
2016,04,25,00,19,7.60
2016,04,25,00,20,7.60
2016,04,25,00,21,7.60
2016,04,25,00,22,7.60
2016,04,25,00,23,7.70
2016,04,25,00,24,7.70
2016,04,25,00,25,7.70
2016,04,25,00,26,7.80
2016,04,25,00,27,7.80
2016,04,25,00,28,7.80
2016,04,25,00,29,7.90
2016,04,25,00,30,8.00
2016,04,25,00,31,8.00
2016,04,25,00,32,8.10
2016,04,25,00,33,8.10
2016,04,25,00,34,8.20
2016,04,25,00,35,8.20
2016,04,25,00,36,8.20
2016,04,25,00,37,8.20
2016,04,25,00,38,8.20
2016,04,25,00,39,8.20
2016,04,25,00,40,8.20
2016,04,25,00,41,8.10
2016,04,25,00,42,8.20
2016,04,25,00,43,8.20
2016,04,25,00,44,8.20
2016,04,25,00,45,8.20
2016,04,25,00,46,8.20
2016,04,25,00,47,8.20
2016,04,25,00,48,8.20
2016,04,25,00,49,8.20
2016,04,25,00,50,8.20
2016,04,25,00,51,8.20
2016,04,25,00,52,8.20
2016,04,25,00,53,8.30
2016,04,25,00,54,8.30
2016,04,25,00,55,8.30
2016,04,25,00,56,8.30
2016,04,25,00,57,8.30
2016,04,25,00,58,8.30
2016,04,25,00,59,8.30
2016,04,25,01,00,8.30
2016,04,25,01,01,8.30
2016,04,25,01,02,8.30
2016,04,25,01,03,8.30
2016,04,25,01,04,8.20
2016,04,25,01,05,8.20
2016,04,25,01,06,8.20
2016,04,25,01,07,8.20
2016,04,25,01,08,8.20
2016,04,25,01,09,8.10
2016,04,25,01,10,8.10
2016,04,25,01,11,8.10
2016,04,25,01,12,8.10
2016,04,25,01,13,8.10
2016,04,25,01,14,8.10
2016,04,25,01,15,8.20
2016,04,25,01,16,8.20
2016,04,25,01,17,8.30
2016,04,25,01,18,8.30
2016,04,25,01,19,8.30
2016,04,25,01,20,8.30
2016,04,25,01,21,8.30
2016,04,25,01,22,8.30
2016,04,25,01,23,8.30
2016,04,25,01,24,8.50
2016,04,25,01,25,8.60
2016,04,25,01,26,8.70
2016,04,25,01,27,8.70
2016,04,25,01,28,8.70
2016,04,25,01,29,8.80
2016,04,25,01,30,8.80
2016,04,25,01,31,8.80
2016,04,25,01,32,8.80
2016,04,25,01,33,8.80
2016,04,25,01,34,8.90
2016,04,25,01,35,8.90
2016,04,25,01,36,8.90
2016,04,25,01,37,8.90
2016,04,25,01,38,9.00
2016,04,25,01,39,9.00
2016,04,25,01,40,9.00
2016,04,25,01,41,9.10
2016,04,25,01,42,9.10
2016,04,25,01,43,9.10
2016,04,25,01,44,9.10
2016,04,25,01,45,9.10
2016,04,25,01,46,9.10
2016,04,25,01,47,9.10
2016,04,25,01,48,9.10
2016,04,25,01,49,9.10
2016,04,25,01,50,9.10
2016,04,25,01,51,9.10
2016,04,25,01,52,9.00
2016,04,25,01,53,9.00
2016,04,25,01,54,9.00
2016,04,25,01,55,9.00
2016,04,25,01,56,9.00
2016,04,25,01,57,9.10
2016,04,25,01,58,9.10
2016,04,25,01,59,9.10
2016,04,25,02,00,9.10
2016,04,25,02,01,9.20
2016,04,25,02,02,9.20
2016,04,25,02,03,9.20
2016,04,25,02,04,9.20
2016,04,25,02,05,9.10
2016,04,25,02,06,9.10
2016,04,25,02,07,9.10
2016,04,25,02,08,9.00
2016,04,25,02,09,9.10
2016,04,25,02,10,9.10
2016,04,25,02,11,9.10
2016,04,25,02,12,9.10
2016,04,25,02,13,9.20
2016,04,25,02,14,9.20
2016,04,25,02,15,9.20
2016,04,25,02,16,9.20
2016,04,25,02,17,9.10
2016,04,25,02,18,9.10
2016,04,25,02,19,9.00
2016,04,25,02,20,9.00
2016,04,25,02,21,9.00
2016,04,25,02,22,8.90
2016,04,25,02,23,8.90
2016,04,25,02,24,8.80
2016,04,25,02,25,8.80
2016,04,25,02,26,8.80
2016,04,25,02,27,8.70
2016,04,25,02,28,8.70
2016,04,25,02,29,8.70
2016,04,25,02,30,8.60
2016,04,25,02,31,8.60
2016,04,25,02,32,8.60
2016,04,25,02,33,8.60
2016,04,25,02,34,8.60
2016,04,25,02,35,8.50
2016,04,25,02,36,8.50
2016,04,25,02,37,8.50
2016,04,25,02,38,8.40
2016,04,25,02,39,8.40
2016,04,25,02,40,8.40
2016,04,25,02,41,8.50
2016,04,25,02,42,8.50
2016,04,25,02,43,8.50
2016,04,25,02,44,8.50
2016,04,25,02,45,8.50
2016,04,25,02,46,8.50
2016,04,25,02,47,8.50
2016,04,25,02,48,8.50
2016,04,25,02,49,8.40
2016,04,25,02,50,8.40
2016,04,25,02,51,8.40
2016,04,25,02,52,8.40
2016,04,25,02,53,8.40
2016,04,25,02,54,8.30
2016,04,25,02,55,8.30
2016,04,25,02,56,8.30
2016,04,25,02,57,8.30
2016,04,25,02,58,8.30
2016,04,25,02,59,8.30
2016,04,25,03,00,8.30
2016,04,25,03,01,8.30
2016,04,25,03,02,8.30
2016,04,25,03,03,8.30
2016,04,25,03,04,8.20
2016,04,25,03,05,8.20
2016,04,25,03,06,8.20
2016,04,25,03,07,8.10
2016,04,25,03,08,8.10
2016,04,25,03,09,8.00
2016,04,25,03,10,8.00
2016,04,25,03,11,8.00
2016,04,25,03,12,7.90
2016,04,25,03,13,7.90
2016,04,25,03,14,7.90
2016,04,25,03,15,7.90
2016,04,25,03,16,7.80
2016,04,25,03,17,7.80
2016,04,25,03,18,7.80
2016,04,25,03,19,7.80
2016,04,25,03,20,7.80
2016,04,25,03,21,7.80
2016,04,25,03,22,7.70
2016,04,25,03,23,7.70
2016,04,25,03,24,7.70
2016,04,25,03,25,7.70
2016,04,25,03,26,7.60
2016,04,25,03,27,7.60
2016,04,25,03,28,7.60
2016,04,25,03,29,7.60
2016,04,25,03,30,7.50
2016,04,25,03,31,7.50
2016,04,25,03,32,7.50
2016,04,25,03,33,7.50
2016,04,25,03,34,7.40
2016,04,25,03,35,7.40
2016,04,25,03,36,7.40
2016,04,25,03,37,7.40
2016,04,25,03,38,7.40
2016,04,25,03,39,7.40
2016,04,25,03,40,7.40
2016,04,25,03,41,7.40
2016,04,25,03,42,7.40
2016,04,25,03,43,7.40
2016,04,25,03,44,7.40
2016,04,25,03,45,7.40
2016,04,25,03,46,7.40
2016,04,25,03,47,7.40
2016,04,25,03,48,7.30
2016,04,25,03,49,7.30
2016,04,25,03,50,7.30
2016,04,25,03,51,7.30
2016,04,25,03,52,7.30
2016,04,25,03,53,7.30
2016,04,25,03,54,7.30
2016,04,25,03,55,7.30
2016,04,25,03,56,7.30
2016,04,25,03,57,7.30
2016,04,25,03,58,7.20
2016,04,25,03,59,7.20
2016,04,25,04,00,7.20
2016,04,25,04,01,7.20
2016,04,25,04,02,7.20
2016,04,25,04,03,7.20
2016,04,25,04,04,7.20
2016,04,25,04,05,7.20
2016,04,25,04,06,7.20
2016,04,25,04,07,7.20
2016,04,25,04,08,7.20
2016,04,25,04,09,7.20
2016,04,25,04,10,7.20
2016,04,25,04,11,7.20
2016,04,25,04,12,7.20
2016,04,25,04,13,7.10
2016,04,25,04,14,7.10
2016,04,25,04,15,7.10
2016,04,25,04,16,7.10
2016,04,25,04,17,7.10
2016,04,25,04,18,7.10
2016,04,25,04,19,7.10
2016,04,25,04,20,7.00
2016,04,25,04,21,7.00
2016,04,25,04,22,7.00
2016,04,25,04,23,7.00
2016,04,25,04,24,7.00
2016,04,25,04,25,7.00
2016,04,25,04,26,6.90
2016,04,25,04,27,6.90
2016,04,25,04,28,6.90
2016,04,25,04,29,6.90
2016,04,25,04,30,6.90
2016,04,25,04,31,6.90
2016,04,25,04,32,6.80
2016,04,25,04,33,6.80
2016,04,25,04,34,6.80
2016,04,25,04,35,6.80
2016,04,25,04,36,6.80
2016,04,25,04,37,6.80
2016,04,25,04,38,6.70
2016,04,25,04,39,6.70
2016,04,25,04,40,6.70
2016,04,25,04,41,6.60
2016,04,25,04,42,6.60
2016,04,25,04,43,6.60
2016,04,25,04,44,6.50
2016,04,25,04,45,6.50
2016,04,25,04,46,6.40
2016,04,25,04,47,6.40
2016,04,25,04,48,6.40
2016,04,25,04,49,6.30
2016,04,25,04,50,6.30
2016,04,25,04,51,6.30
2016,04,25,04,52,6.20
2016,04,25,04,53,6.20
2016,04,25,04,54,6.20
2016,04,25,04,55,6.10
2016,04,25,04,56,6.10
2016,04,25,04,57,6.10
2016,04,25,04,58,6.10
2016,04,25,04,59,6.00
2016,04,25,05,00,6.00
2016,04,25,05,01,6.00
2016,04,25,05,02,5.90
2016,04,25,05,03,5.90
2016,04,25,05,04,5.90
2016,04,25,05,05,5.90
2016,04,25,05,06,5.90
2016,04,25,05,07,5.80
2016,04,25,05,08,5.80
2016,04,25,05,09,5.80
2016,04,25,05,10,5.80
2016,04,25,05,11,5.80
2016,04,25,05,12,5.80
2016,04,25,05,13,5.80
2016,04,25,05,14,5.70
2016,04,25,05,15,5.70
2016,04,25,05,16,5.70
2016,04,25,05,17,5.70
2016,04,25,05,18,5.70
2016,04,25,05,19,5.70
2016,04,25,05,20,5.70
2016,04,25,05,21,5.70
2016,04,25,05,22,5.60
2016,04,25,05,23,5.60
2016,04,25,05,24,5.60
2016,04,25,05,25,5.60
2016,04,25,05,26,5.60
2016,04,25,05,27,5.60
2016,04,25,05,28,5.50
2016,04,25,05,29,5.50
2016,04,25,05,30,5.50
2016,04,25,05,31,5.50
2016,04,25,05,32,5.50
2016,04,25,05,33,5.50
2016,04,25,05,34,5.40
2016,04,25,05,35,5.40
2016,04,25,05,36,5.40
2016,04,25,05,37,5.50
2016,04,25,05,38,5.50
2016,04,25,05,39,5.50
2016,04,25,05,40,5.50
2016,04,25,05,41,5.50
2016,04,25,05,42,5.50
2016,04,25,05,43,5.50
2016,04,25,05,44,5.40
2016,04,25,05,45,5.40
2016,04,25,05,46,5.40
2016,04,25,05,47,5.40
2016,04,25,05,48,5.40
2016,04,25,05,49,5.40
2016,04,25,05,50,5.40
2016,04,25,05,51,5.40
2016,04,25,05,52,5.40
2016,04,25,05,53,5.40
2016,04,25,05,54,5.40
2016,04,25,05,55,5.40
2016,04,25,05,56,5.40
2016,04,25,05,57,5.40
2016,04,25,05,58,5.40
2016,04,25,05,59,5.40
2016,04,25,06,00,5.40
2016,04,25,06,01,5.40
2016,04,25,06,02,5.40
2016,04,25,06,03,5.40
2016,04,25,06,04,5.50
2016,04,25,06,05,5.50
2016,04,25,06,06,5.50
2016,04,25,06,07,5.50
2016,04,25,06,08,5.50
2016,04,25,06,09,5.50
2016,04,25,06,10,5.60
2016,04,25,06,11,5.60
2016,04,25,06,12,5.60
2016,04,25,06,13,5.60
2016,04,25,06,14,5.60
2016,04,25,06,15,5.60
2016,04,25,06,16,5.60
2016,04,25,06,17,5.60
2016,04,25,06,18,5.60
2016,04,25,06,19,5.60
2016,04,25,06,20,5.60
2016,04,25,06,21,5.60
2016,04,25,06,22,5.60
2016,04,25,06,23,5.60
2016,04,25,06,24,5.60
2016,04,25,06,25,5.60
2016,04,25,06,26,5.50
2016,04,25,06,27,5.60
2016,04,25,06,28,5.50
2016,04,25,06,29,5.50
2016,04,25,06,30,5.50
2016,04,25,06,31,5.50
2016,04,25,06,32,5.50
2016,04,25,06,33,5.50
2016,04,25,06,34,5.50
2016,04,25,06,35,5.50
2016,04,25,06,36,5.50
2016,04,25,06,37,5.50
2016,04,25,06,38,5.50
2016,04,25,06,39,5.50
2016,04,25,06,40,5.50
2016,04,25,06,41,5.50
2016,04,25,06,42,5.50
2016,04,25,06,43,5.50
2016,04,25,06,44,5.50
2016,04,25,06,45,5.60
2016,04,25,06,46,5.60
2016,04,25,06,47,5.70
2016,04,25,06,48,5.70
2016,04,25,06,49,5.70
2016,04,25,06,50,5.80
2016,04,25,06,51,5.80
2016,04,25,06,52,5.90
2016,04,25,06,53,5.90
2016,04,25,06,54,5.90
2016,04,25,06,55,6.00
2016,04,25,06,56,6.00
2016,04,25,06,57,6.00
2016,04,25,06,58,6.10
2016,04,25,06,59,6.10
2016,04,25,07,00,6.10
2016,04,25,07,01,6.10
2016,04,25,07,02,6.10
2016,04,25,07,03,6.10
2016,04,25,07,04,6.10
2016,04,25,07,05,6.20
2016,04,25,07,06,6.20
2016,04,25,07,07,6.20
2016,04,25,07,08,6.20
2016,04,25,07,09,6.30
2016,04,25,07,10,6.30
2016,04,25,07,11,6.30
2016,04,25,07,12,6.30
2016,04,25,07,13,6.40
2016,04,25,07,14,6.40
2016,04,25,07,15,6.50
2016,04,25,07,16,6.50
2016,04,25,07,17,6.60
2016,04,25,07,18,6.60
2016,04,25,07,19,6.70
2016,04,25,07,20,6.70
2016,04,25,07,21,6.70
2016,04,25,07,22,6.80
2016,04,25,07,23,6.80
2016,04,25,07,24,6.80
2016,04,25,07,25,6.90
2016,04,25,07,26,6.90
2016,04,25,07,27,6.90
2016,04,25,07,28,6.90
2016,04,25,07,29,7.00
2016,04,25,07,30,7.00
2016,04,25,07,31,7.10
2016,04,25,07,32,7.20
2016,04,25,07,33,7.20
2016,04,25,07,34,7.20
2016,04,25,07,35,7.20
2016,04,25,07,36,7.30
2016,04,25,07,37,7.40
2016,04,25,07,38,7.40
2016,04,25,07,39,7.50
2016,04,25,07,40,7.60
2016,04,25,07,41,7.70
2016,04,25,07,42,7.80
2016,04,25,07,43,7.90
2016,04,25,07,44,8.00
2016,04,25,07,45,8.10
2016,04,25,07,46,8.20
2016,04,25,07,47,8.30
2016,04,25,07,48,8.30
2016,04,25,07,49,8.40
2016,04,25,07,50,8.50
2016,04,25,07,51,8.50
2016,04,25,07,52,8.60
2016,04,25,07,53,8.70
2016,04,25,07,54,8.70
2016,04,25,07,55,8.80
2016,04,25,07,56,8.90
2016,04,25,07,57,9.00
2016,04,25,07,58,9.10
2016,04,25,07,59,9.20
2016,04,25,08,00,9.30
2016,04,25,08,01,9.40
2016,04,25,08,02,9.40
2016,04,25,08,03,9.50
2016,04,25,08,04,9.50
2016,04,25,08,05,9.60
2016,04,25,08,06,9.60
2016,04,25,08,07,9.70
2016,04,25,08,08,9.70
2016,04,25,08,09,9.80
2016,04,25,08,10,9.80
2016,04,25,08,11,10.00
2016,04,25,08,12,10.10
2016,04,25,08,13,10.20
2016,04,25,08,14,10.30
2016,04,25,08,15,10.40
2016,04,25,08,16,10.50
2016,04,25,08,17,10.60
2016,04,25,08,18,10.50
2016,04,25,08,19,10.40
2016,04,25,08,20,10.50
2016,04,25,08,21,10.50
2016,04,25,08,22,10.60
2016,04,25,08,23,10.70
2016,04,25,08,24,10.70
2016,04,25,08,25,10.70
2016,04,25,08,26,10.70
2016,04,25,08,27,10.80
2016,04,25,08,28,10.80
2016,04,25,08,29,10.90
2016,04,25,08,30,11.00
2016,04,25,08,31,11.10
2016,04,25,08,32,11.20
2016,04,25,08,33,11.30
2016,04,25,08,34,11.40
2016,04,25,08,35,11.40
2016,04,25,08,36,11.40
2016,04,25,08,37,11.40
2016,04,25,08,38,11.40
2016,04,25,08,39,11.40
2016,04,25,08,40,11.50
2016,04,25,08,41,11.60
2016,04,25,08,42,11.60
2016,04,25,08,43,11.70
2016,04,25,08,44,11.80
2016,04,25,08,45,11.90
2016,04,25,08,46,12.00
2016,04,25,08,47,12.00
2016,04,25,08,48,12.10
2016,04,25,08,49,12.10
2016,04,25,08,50,12.20
2016,04,25,08,51,12.20
2016,04,25,08,52,12.20
2016,04,25,08,53,12.10
2016,04,25,08,54,12.00
2016,04,25,08,55,11.80
2016,04,25,08,56,11.80
2016,04,25,08,57,11.60
2016,04,25,08,58,11.50
2016,04,25,08,59,11.40
2016,04,25,09,00,11.30
2016,04,25,09,01,11.20
2016,04,25,09,02,11.20
2016,04,25,09,03,11.10
2016,04,25,09,04,11.10
2016,04,25,09,05,11.10
2016,04,25,09,06,11.30
2016,04,25,09,07,11.40
2016,04,25,09,08,11.60
2016,04,25,09,09,11.70
2016,04,25,09,10,11.80
2016,04,25,09,11,11.90
2016,04,25,09,12,12.00
2016,04,25,09,13,12.10
2016,04,25,09,14,12.20
2016,04,25,09,15,12.20
2016,04,25,09,16,12.20
2016,04,25,09,17,12.20
2016,04,25,09,18,12.30
2016,04,25,09,19,12.30
2016,04,25,09,20,12.40
2016,04,25,09,21,12.40
2016,04,25,09,22,12.50
2016,04,25,09,23,12.50
2016,04,25,09,24,12.40
2016,04,25,09,25,12.30
2016,04,25,09,26,12.30
2016,04,25,09,27,12.20
2016,04,25,09,28,12.00
2016,04,25,09,29,11.90
2016,04,25,09,30,11.70
2016,04,25,09,31,11.50
2016,04,25,09,32,11.40
2016,04,25,09,33,11.40
2016,04,25,09,34,11.40
2016,04,25,09,35,11.40
2016,04,25,09,36,11.40
2016,04,25,09,37,11.40
2016,04,25,09,38,11.30
2016,04,25,09,39,11.30
2016,04,25,09,40,11.30
2016,04,25,09,41,11.20
2016,04,25,09,42,11.20
2016,04,25,09,43,11.20
2016,04,25,09,44,11.10
2016,04,25,09,45,11.10
2016,04,25,09,46,11.00
2016,04,25,09,47,11.00
2016,04,25,09,48,11.10
2016,04,25,09,49,11.10
2016,04,25,09,50,11.10
2016,04,25,09,51,11.10
2016,04,25,09,52,11.20
2016,04,25,09,53,11.20
2016,04,25,09,54,11.20
2016,04,25,09,55,11.20
2016,04,25,09,56,11.10
2016,04,25,09,57,11.10
2016,04,25,09,58,11.10
2016,04,25,09,59,11.10
2016,04,25,10,00,11.20
2016,04,25,10,01,11.20
2016,04,25,10,02,11.20
2016,04,25,10,03,11.30
2016,04,25,10,04,11.30
2016,04,25,10,05,11.40
2016,04,25,10,06,11.40
2016,04,25,10,07,11.50
2016,04,25,10,08,11.50
2016,04,25,10,09,11.60
2016,04,25,10,10,11.60
2016,04,25,10,11,11.60
2016,04,25,10,12,11.60
2016,04,25,10,13,11.60
2016,04,25,10,14,11.60
2016,04,25,10,15,11.60
2016,04,25,10,16,11.60
2016,04,25,10,17,11.70
2016,04,25,10,18,11.70
2016,04,25,10,19,11.60
2016,04,25,10,20,11.60
2016,04,25,10,21,11.50
2016,04,25,10,22,11.40
2016,04,25,10,23,11.30
2016,04,25,10,24,11.40
2016,04,25,10,25,11.50
2016,04,25,10,26,11.60
2016,04,25,10,27,11.70
2016,04,25,10,28,11.80
2016,04,25,10,29,11.90
2016,04,25,10,30,11.90
2016,04,25,10,31,12.00
2016,04,25,10,32,12.20
2016,04,25,10,33,12.20
2016,04,25,10,34,12.20
2016,04,25,10,35,12.20
2016,04,25,10,36,12.20
2016,04,25,10,37,12.20
2016,04,25,10,38,12.10
2016,04,25,10,39,12.10
2016,04,25,10,40,12.00
2016,04,25,10,41,12.00
2016,04,25,10,42,11.90
2016,04,25,10,43,11.90
2016,04,25,10,44,11.80
2016,04,25,10,45,11.80
2016,04,25,10,46,11.80
2016,04,25,10,47,11.80
2016,04,25,10,48,11.90
2016,04,25,10,49,12.00
2016,04,25,10,50,12.10
2016,04,25,10,51,12.10
2016,04,25,10,52,12.10
2016,04,25,10,53,12.00
2016,04,25,10,54,11.90
2016,04,25,10,55,11.90
2016,04,25,10,56,11.90
2016,04,25,10,57,11.90
2016,04,25,10,58,11.90
2016,04,25,10,59,11.90
2016,04,25,11,00,12.00
2016,04,25,11,01,12.20
2016,04,25,11,02,12.20
2016,04,25,11,03,12.20
2016,04,25,11,04,12.20
2016,04,25,11,05,12.10
2016,04,25,11,06,12.10
2016,04,25,11,07,12.10
2016,04,25,11,08,12.30
2016,04,25,11,09,12.50
2016,04,25,11,10,12.60
2016,04,25,11,11,12.70
2016,04,25,11,12,12.90
2016,04,25,11,13,13.00
2016,04,25,11,14,13.00
2016,04,25,11,15,13.00
2016,04,25,11,16,13.00
2016,04,25,11,17,12.90
2016,04,25,11,18,12.90
2016,04,25,11,19,12.90
2016,04,25,11,20,12.90
2016,04,25,11,21,12.90
2016,04,25,11,22,12.80
2016,04,25,11,23,12.80
2016,04,25,11,24,12.80
2016,04,25,11,25,12.80
2016,04,25,11,26,12.90
2016,04,25,11,27,12.80
2016,04,25,11,28,12.70
2016,04,25,11,29,12.50
2016,04,25,11,30,12.40
2016,04,25,11,31,12.40
2016,04,25,11,32,12.30
2016,04,25,11,33,12.20
2016,04,25,11,34,12.20
2016,04,25,11,35,12.20
2016,04,25,11,36,12.20
2016,04,25,11,37,12.20
2016,04,25,11,38,12.20
2016,04,25,11,39,12.20
2016,04,25,11,40,12.20
2016,04,25,11,41,12.20
2016,04,25,11,42,12.20
2016,04,25,11,43,12.30
2016,04,25,11,44,12.40
2016,04,25,11,45,12.60
2016,04,25,11,46,12.70
2016,04,25,11,47,12.90
2016,04,25,11,48,13.00
2016,04,25,11,49,13.10
2016,04,25,11,50,13.10
2016,04,25,11,51,13.10
2016,04,25,11,52,13.10
2016,04,25,11,53,13.10
2016,04,25,11,54,13.20
2016,04,25,11,55,13.20
2016,04,25,11,56,13.20
2016,04,25,11,57,13.10
2016,04,25,11,58,13.10
2016,04,25,11,59,13.20
2016,04,25,12,00,13.10
2016,04,25,12,01,13.10
2016,04,25,12,02,12.90
2016,04,25,12,03,12.90
2016,04,25,12,04,12.80
2016,04,25,12,05,12.90
2016,04,25,12,06,12.80
2016,04,25,12,07,12.80
2016,04,25,12,08,12.80
2016,04,25,12,09,12.70
2016,04,25,12,10,12.60
2016,04,25,12,11,12.70
2016,04,25,12,12,12.70
2016,04,25,12,13,12.60
2016,04,25,12,14,12.50
2016,04,25,12,15,12.40
2016,04,25,12,16,12.30
2016,04,25,12,17,12.30
2016,04,25,12,18,12.30
2016,04,25,12,19,12.40
2016,04,25,12,20,12.40
2016,04,25,12,21,12.40
2016,04,25,12,22,12.40
2016,04,25,12,23,12.50
2016,04,25,12,24,12.60
2016,04,25,12,25,12.60
2016,04,25,12,26,12.50
2016,04,25,12,27,12.50
2016,04,25,12,28,12.40
2016,04,25,12,29,12.30
2016,04,25,12,30,12.30
2016,04,25,12,31,12.30
2016,04,25,12,32,12.30
2016,04,25,12,33,12.30
2016,04,25,12,34,12.30
2016,04,25,12,35,12.20
2016,04,25,12,36,12.20
2016,04,25,12,37,12.20
2016,04,25,12,38,12.20
2016,04,25,12,39,12.30
2016,04,25,12,40,12.30
2016,04,25,12,41,12.20
2016,04,25,12,42,12.30
2016,04,25,12,43,12.30
2016,04,25,12,44,12.50
2016,04,25,12,45,12.60
2016,04,25,12,46,12.70
2016,04,25,12,47,12.80
2016,04,25,12,48,12.80
2016,04,25,12,49,12.70
2016,04,25,12,50,12.60
2016,04,25,12,51,12.60
2016,04,25,12,52,12.60
2016,04,25,12,53,12.60
2016,04,25,12,54,12.60
2016,04,25,12,55,12.60
2016,04,25,12,56,12.50
2016,04,25,12,57,12.50
2016,04,25,12,58,12.60
2016,04,25,12,59,12.60
2016,04,25,13,00,12.70
2016,04,25,13,01,12.70
2016,04,25,13,02,12.80
2016,04,25,13,03,12.80
2016,04,25,13,04,12.90
2016,04,25,13,05,13.00
2016,04,25,13,06,13.10
2016,04,25,13,07,13.10
2016,04,25,13,08,13.10
2016,04,25,13,09,13.10
2016,04,25,13,10,13.00
2016,04,25,13,11,12.90
2016,04,25,13,12,12.90
2016,04,25,13,13,12.90
2016,04,25,13,14,13.00
2016,04,25,13,15,13.10
2016,04,25,13,16,13.30
2016,04,25,13,17,13.30
2016,04,25,13,18,13.30
2016,04,25,13,19,13.30
2016,04,25,13,20,13.40
2016,04,25,13,21,13.40
2016,04,25,13,22,13.30
2016,04,25,13,23,13.30
2016,04,25,13,24,13.30
2016,04,25,13,25,13.30
2016,04,25,13,26,13.30
2016,04,25,13,27,13.30
2016,04,25,13,28,13.30
2016,04,25,13,29,13.20
2016,04,25,13,30,13.10
2016,04,25,13,31,13.10
2016,04,25,13,32,13.10
2016,04,25,13,33,13.10
2016,04,25,13,34,13.00
2016,04,25,13,35,13.10
2016,04,25,13,36,13.10
2016,04,25,13,37,13.20
2016,04,25,13,38,13.20
2016,04,25,13,39,13.20
2016,04,25,13,40,13.30
2016,04,25,13,41,13.40
2016,04,25,13,42,13.50
2016,04,25,13,43,13.60
2016,04,25,13,44,13.70
2016,04,25,13,45,13.80
2016,04,25,13,46,13.90
2016,04,25,13,47,13.90
2016,04,25,13,48,13.90
2016,04,25,13,49,13.90
2016,04,25,13,50,13.90
2016,04,25,13,51,13.80
2016,04,25,13,52,13.80
2016,04,25,13,53,13.80
2016,04,25,13,54,13.70
2016,04,25,13,55,13.80
2016,04,25,13,56,13.80
2016,04,25,13,57,13.90
2016,04,25,13,58,13.90
2016,04,25,13,59,14.00
2016,04,25,14,00,14.10
2016,04,25,14,01,14.20
2016,04,25,14,02,14.10
2016,04,25,14,03,13.80
2016,04,25,14,04,13.60
2016,04,25,14,05,13.50
2016,04,25,14,06,13.50
2016,04,25,14,07,13.60
2016,04,25,14,08,13.60
2016,04,25,14,09,13.60
2016,04,25,14,10,13.60
2016,04,25,14,11,13.60
2016,04,25,14,12,13.60
2016,04,25,14,13,13.60
2016,04,25,14,14,13.60
2016,04,25,14,15,13.60
2016,04,25,14,16,13.70
2016,04,25,14,17,13.70
2016,04,25,14,18,13.80
2016,04,25,14,19,13.80
2016,04,25,14,20,13.70
2016,04,25,14,21,13.70
2016,04,25,14,22,13.70
2016,04,25,14,23,13.80
2016,04,25,14,24,13.90
2016,04,25,14,25,14.00
2016,04,25,14,26,14.00
2016,04,25,14,27,13.90
2016,04,25,14,28,14.00
2016,04,25,14,29,14.00
2016,04,25,14,30,13.90
2016,04,25,14,31,14.00
2016,04,25,14,32,14.00
2016,04,25,14,33,13.90
2016,04,25,14,34,13.90
2016,04,25,14,35,14.00
2016,04,25,14,36,14.00
2016,04,25,14,37,13.90
2016,04,25,14,38,13.90
2016,04,25,14,39,13.80
2016,04,25,14,40,13.80
2016,04,25,14,41,13.70
2016,04,25,14,42,13.70
2016,04,25,14,43,13.70
2016,04,25,14,44,13.70
2016,04,25,14,45,13.80
2016,04,25,14,46,13.70
2016,04,25,14,47,13.60
2016,04,25,14,48,13.60
2016,04,25,14,49,13.50
2016,04,25,14,50,13.50
2016,04,25,14,51,13.50
2016,04,25,14,52,13.60
2016,04,25,14,53,13.60
2016,04,25,14,54,13.70
2016,04,25,14,55,13.70
2016,04,25,14,56,13.80
2016,04,25,14,57,13.90
2016,04,25,14,58,14.00
2016,04,25,14,59,14.20
2016,04,25,15,00,14.30
2016,04,25,15,01,14.30
2016,04,25,15,02,14.20
2016,04,25,15,03,14.20
2016,04,25,15,04,14.20
2016,04,25,15,05,14.30
2016,04,25,15,06,14.30
2016,04,25,15,07,14.30
2016,04,25,15,08,14.30
2016,04,25,15,09,14.20
2016,04,25,15,10,14.20
2016,04,25,15,11,14.30
2016,04,25,15,12,14.30
2016,04,25,15,13,14.30
2016,04,25,15,14,14.30
2016,04,25,15,15,14.30
2016,04,25,15,16,14.20
2016,04,25,15,17,14.10
2016,04,25,15,18,14.00
2016,04,25,15,19,14.00
2016,04,25,15,20,13.90
2016,04,25,15,21,13.80
2016,04,25,15,22,13.90
2016,04,25,15,23,13.90
2016,04,25,15,24,14.00
2016,04,25,15,25,14.00
2016,04,25,15,26,14.10
2016,04,25,15,27,14.10
2016,04,25,15,28,14.10
2016,04,25,15,29,14.10
2016,04,25,15,30,14.20
2016,04,25,15,31,14.20
2016,04,25,15,32,14.20
2016,04,25,15,33,14.20
2016,04,25,15,34,14.30
2016,04,25,15,35,14.30
2016,04,25,15,36,14.30
2016,04,25,15,37,14.30
2016,04,25,15,38,14.40
2016,04,25,15,39,14.40
2016,04,25,15,40,14.40
2016,04,25,15,41,14.40
2016,04,25,15,42,14.40
2016,04,25,15,43,14.40
2016,04,25,15,44,14.40
2016,04,25,15,45,14.30
2016,04,25,15,46,14.30
2016,04,25,15,47,14.30
2016,04,25,15,48,14.20
2016,04,25,15,49,14.20
2016,04,25,15,50,14.30
2016,04,25,15,51,14.30
2016,04,25,15,52,14.30
2016,04,25,15,53,14.40
2016,04,25,15,54,14.50
2016,04,25,15,55,14.60
2016,04,25,15,56,14.60
2016,04,25,15,57,14.60
2016,04,25,15,58,14.50
2016,04,25,15,59,14.40
2016,04,25,16,00,14.40
2016,04,25,16,01,14.40
2016,04,25,16,02,14.40
2016,04,25,16,03,14.30
2016,04,25,16,04,14.30
2016,04,25,16,05,14.30
2016,04,25,16,06,14.30
2016,04,25,16,07,14.30
2016,04,25,16,08,14.20
2016,04,25,16,09,14.10
2016,04,25,16,10,14.00
2016,04,25,16,11,13.90
2016,04,25,16,12,13.90
2016,04,25,16,13,13.90
2016,04,25,16,14,14.00
2016,04,25,16,15,14.00
2016,04,25,16,16,14.10
2016,04,25,16,17,14.10
2016,04,25,16,18,14.10
2016,04,25,16,19,14.10
2016,04,25,16,20,14.10
2016,04,25,16,21,14.00
2016,04,25,16,22,13.90
2016,04,25,16,23,13.80
2016,04,25,16,24,13.80
2016,04,25,16,25,13.90
2016,04,25,16,26,14.00
2016,04,25,16,27,14.10
2016,04,25,16,28,14.20
2016,04,25,16,29,14.20
2016,04,25,16,30,14.20
2016,04,25,16,31,14.20
2016,04,25,16,32,14.20
2016,04,25,16,33,14.20
2016,04,25,16,34,14.20
2016,04,25,16,35,14.30
2016,04,25,16,36,14.30
2016,04,25,16,37,14.30
2016,04,25,16,38,14.30
2016,04,25,16,39,14.30
2016,04,25,16,40,14.20
2016,04,25,16,41,14.20
2016,04,25,16,42,14.20
2016,04,25,16,43,14.30
2016,04,25,16,44,14.30
2016,04,25,16,45,14.30
2016,04,25,16,46,14.40
2016,04,25,16,47,14.30
2016,04,25,16,48,14.30
2016,04,25,16,49,14.40
2016,04,25,16,50,14.40
2016,04,25,16,51,14.50
2016,04,25,16,52,14.60
2016,04,25,16,53,14.70
2016,04,25,16,54,14.70
2016,04,25,16,55,14.70
2016,04,25,16,56,14.70
2016,04,25,16,57,14.70
2016,04,25,16,58,14.80
2016,04,25,16,59,14.90
2016,04,25,17,00,15.00
2016,04,25,17,01,15.00
2016,04,25,17,02,15.00
2016,04,25,17,03,15.00
2016,04,25,17,04,15.00
2016,04,25,17,05,15.00
2016,04,25,17,06,15.00
2016,04,25,17,07,15.10
2016,04,25,17,08,15.10
2016,04,25,17,09,15.10
2016,04,25,17,10,15.00
2016,04,25,17,11,15.00
2016,04,25,17,12,15.00
2016,04,25,17,13,15.00
2016,04,25,17,14,14.90
2016,04,25,17,15,14.80
2016,04,25,17,16,14.80
2016,04,25,17,17,14.80
2016,04,25,17,18,14.80
2016,04,25,17,19,14.80
2016,04,25,17,20,14.80
2016,04,25,17,21,14.80
2016,04,25,17,22,14.80
2016,04,25,17,23,14.80
2016,04,25,17,24,14.70
2016,04,25,17,25,14.50
2016,04,25,17,26,14.40
2016,04,25,17,27,14.20
2016,04,25,17,28,14.10
2016,04,25,17,29,14.10
2016,04,25,17,30,14.00
2016,04,25,17,31,13.90
2016,04,25,17,32,13.90
2016,04,25,17,33,13.80
2016,04,25,17,34,13.80
2016,04,25,17,35,13.70
2016,04,25,17,36,13.60
2016,04,25,17,37,13.60
2016,04,25,17,38,13.60
2016,04,25,17,39,13.60
2016,04,25,17,40,13.60